Location: Nitra
(0.0000°N, 18.0833°E)
Time: 20:03:00
(UTC+02:00)

A-11 Canister half - Pass Details

Date: 04 April 2023
Orbit: 1526 x 1682 km, 47.3° (Epoch: 08 June)

Event Time Altitude Azimuth Distance (km) Brightness Sun altitude
Rises 23:54:17 0° 311° (NW) 4,744 - -74.8°
Reaches altitude 10° 23:57:27 10° 307° (NW) 3,742 - -75.6°
Maximum altitude 00:06:36 56° 231° (SW) 1,774 - -77.7°
Drops below altitude 10° 00:15:39 10° 154° (SSE) 3,691 - -79.6°
Sets 00:18:47 0° 150° (SSE) 4,676 - -80.3°
